カタログに戻る

STARLINK-5634

運用中通信VLEO
NORAD 55439·PAYLOAD·🇺🇸 United States

打ち上げ Jan 31, 2023 から Vandenberg Space Force Base

Loading…

次のパス (今後24時間)

TLE

最新Source: CelesTrak SupGP

元期: Sep 14, 2026, 21:54 UTC

1 55439C 23014BA  26257.91298611 -.00046088  00000+0 -38630-2 0  2571
2 55439  70.0018 347.4314 0003196 272.1118 342.9229 14.98346701    16

AllMySatでSTARLINK-5634をリアルタイム追跡

Download on the App Store